Meteo Giornale » Osservazioni meteo Russia » Blagoveshchensk
ore: 10:00 - Osservazioni Meteo Blagoveshchensk
Lat. 50° 26' N Lon. 127° 25' E Alt. 195 metri s.l.m.
16 °C
Molto Nuvoloso
Temp. 24 Ore
14 °C
16 °C
Est
10.8 Km/h
Dew point 15 °C
Umidità 93 %
Visibilità 10 Km
Il sole sorge alle ore 05:44
Il sole tramonta alle ore 19:16
| Data e Ora | Cielo e Fenomeni | T °C | DP °C | Um. % | Pres. hPa | Vis. km | Vento km/h | |
|---|---|---|---|---|---|---|---|---|
| Oggi h: 10:00 | Molto Nuvoloso | 16 | 15 | 93 | 1017 | 10 | E 10.8 | |
| Oggi h: 09:30 | Molto Nuvoloso | 16 | 15 | 93 | 1017 | 10 | E/SE 10.8 | |
| Oggi h: 09:00 | Molto Nuvoloso | 16 | 15 | 93 | 1017 | 10 | E/SE 10.8 | |
| Oggi h: 08:30 | Molto Nuvoloso | 15 | 15 | 100 | 1017 | 10 | E/SE 10.8 | |
| Oggi h: 08:00 | Molto Nuvoloso | 15 | 15 | 100 | 1017 | 10 | N 7.2 | |
| Oggi h: 07:30 | Molto Nuvoloso | 15 | 15 | 100 | 1017 | 10 | N 7.2 | |
| Oggi h: 07:00 | Molto Nuvoloso | 15 | 15 | 100 | 1017 | 10 | N 7.2 | |
| Oggi h: 06:00 | Molto Nuvoloso | 15 | 15 | 100 | 1017 | 10 | N 7.2 | |
| Oggi h: 05:30 | Molto Nuvoloso | 15 | 15 | 100 | 1016 | 10 | N 7.2 | |
| Oggi h: 05:00 | Molto Nuvoloso | 15 | 15 | 100 | 1016 | 10 | N 7.2 | |
| Oggi h: 04:30 | Molto Nuvoloso | 15 | 15 | 100 | 1016 | 10 | E/SE 10.8 | |
| Oggi h: 04:00 | Molto Nuvoloso | 15 | 14 | 93 | 1016 | 10 | E/SE 10.8 | |
| Oggi h: 03:30 | Molto Nuvoloso | 15 | 14 | 93 | 1017 | 10 | E/SE 10.8 | |
| Oggi h: 03:00 | Pioggia | 15 | 15 | 100 | 1016 | 10 | E/SE 10.8 | |
| Oggi h: 02:30 | Pioggia | 15 | 15 | 100 | 1016 | 10 | E 10.8 | |
| Oggi h: 02:00 | Pioggia | 15 | 15 | 100 | 1016 | 6 | E/SE 10.8 | |
| Oggi h: 01:30 | Molto Nuvoloso | 15 | 15 | 100 | 1016 | 10 | E/SE 10.8 | |
| Oggi h: 01:00 | Pioggia | 15 | 15 | 100 | 1016 | 7 | E/SE 14.4 | |
| Oggi h: 00:52 | Pioggia | 15 | 15 | 100 | 1016 | 4 | E/SE 14.4 | |
| Oggi h: 00:30 | Molto Nuvoloso | 15 | 15 | 100 | 1016 | 10 | E/SE 14.4 | |
| Oggi h: 00:00 | Molto Nuvoloso | 15 | 15 | 100 | 1016 | 10 | E/SE 10.8 | |
| Ieri h: 23:30 | Molto Nuvoloso | 15 | 15 | 100 | 1016 | 10 | E/SE 10.8 | |
| Ieri h: 23:00 | Molto Nuvoloso | 15 | 14 | 93 | 1016 | 10 | E 14.4 | |
| Ieri h: 22:30 | Molto Nuvoloso | 15 | 14 | 93 | 1016 | 10 | E 18 | |
| Ieri h: 21:30 | Molto Nuvoloso | 16 | 14 | 87 | 1016 | 10 | E 14.4 | |
| Ieri h: 20:30 | Pioggia | 15 | 15 | 100 | 1016 | 10 | E/NE 14.4 | |
| Ieri h: 20:00 | Pioggia | 15 | 15 | 100 | 1016 | 6 | E/NE 10.8 | |
| Ieri h: 19:30 | Pioggia | 15 | 15 | 100 | 1016 | 4 | E 14.4 | |
| Ieri h: 19:22 | Pioggia | 15 | 15 | 100 | 1016 | 5 | E 14.4 | |
| Ieri h: 19:00 | Pioggia | 15 | 15 | 100 | 1016 | 5 | E 10.8 | |
| Ieri h: 18:30 | Pioggia | 15 | 15 | 100 | 1016 | 4 | E 14.4 | |
| Ieri h: 18:00 | Pioggia | 15 | 15 | 100 | 1016 | 6 | E/SE 18 | |
| Ieri h: 17:00 | Molto Nuvoloso | 16 | 14 | 87 | 1015 | 10 | E 14.4 | |
| Ieri h: 16:30 | Pioggia | 16 | 14 | 87 | 1015 | 10 | E 18 | |
| Ieri h: 16:00 | Pioggia | 16 | 14 | 87 | 1015 | 10 | E 18 | |
| Ieri h: 15:30 | Pioggia | 15 | 14 | 93 | 1015 | 10 | E 18 | |
| Ieri h: 15:00 | Pioggia | 15 | 14 | 93 | 1015 | 9 | E 21.6 | |
| Ieri h: 14:30 | Pioggia | 15 | 14 | 93 | 1015 | 7 | E 21.6 | |
| Ieri h: 14:07 | Pioggia | 15 | 14 | 93 | 1015 | 3 | E 18 | |
| Ieri h: 14:00 | Pioggia | 15 | 14 | 93 | 1015 | 8 | E 18 | |
| Ieri h: 13:30 | Pioggia | 15 | 14 | 93 | 1015 | 10 | E 25.2 | |
| Ieri h: 13:00 | Pioggia | 15 | 14 | 93 | 1015 | 9 | E 25.2 | |
| Ieri h: 12:30 | Pioggia | 15 | 14 | 93 | 1015 | 5 | E 18 | |
| Ieri h: 12:24 | Pioggia | 15 | 14 | 93 | 1015 | 3 | E 18 | |
| Ieri h: 12:07 | Pioggia | 15 | 14 | 93 | 1015 | 4 | E 18 | |
| Ieri h: 12:00 | Pioggia | 14 | 13 | 93 | 1015 | 3 | E 14.4 | |
| Ieri h: 11:49 | Pioggia | 14 | 13 | 93 | 1015 | 3 | E 14.4 | |
| Ieri h: 11:40 | Pioggia | 15 | 14 | 93 | 1016 | 3 | E 14.4 | |
| Ieri h: 11:30 | Pioggia | 15 | 14 | 93 | 1015 | 10 | E/NE 10.8 | |
| Ieri h: 11:00 | Pioggia | 14 | 13 | 93 | 1016 | 4 | E 14.4 | |
| Ieri h: 10:54 | Pioggia | 14 | 13 | 93 | 1016 | 3 | E 10.8 | |



